Mineralnyye Vody Airport

Jump to: basic info | weather | frequencies | runways | comments

Related pages: nearby airports | nearby navaids | notams | map

Basic information (top)

Codes: MRV URMM
Location: lon 44.225101, lat 43.081902, elev 1,054 ft / 321 m msl
Status: medium_airport
Scheduled airline service: yes
Links: Wikipedia Mobile

Weather (top)

Current conditions (rec'd 2014/12/20 17:30Z):

URMM 201730Z 00000MPS 0150 R30/0500N FG VV004 03/03 Q1019 R30/CLRD70 NOSIG RMK MT OBSC QFE736/0981

Airport forecast (rec'd 2014/12/20 15:24Z):

TAF URMM 201351Z 2015/2115 28003G08MPS 2100 BR BKN007 TM00/2015Z 
      TEMPO 2015/2108 VRB02MPS 0300 FZFG OVC002 
      BECMG 2108/2110 9999 NSW BKN010

Frequencies (top)

Verify before use: may be inaccurate or out of date.

APP: 119.3 MHz (APP)
ATIS: 127.4 MHz (ATIS)
GND: 121.9 MHz (TAXIING)
RDR: 120.7 MHz (KRUG)
TWR: 128 MHz (START)

Runways (top)

12/30: 12,795 x 197 ft (3,900 x 60 m) — paved — lighted

Latest comments (top)

No comments yet for Mineralnyye Vody Airport

More... (top)

See also NOTAMs and nearby airports and navaids, or visit the Mineralnyye Vody Airport page at the main OurAirports website..